Toledo, OH

8:58 PM EDT on August 16, 2017 (GMT -0400)
Toledo Express

Weather History for KTOL - May, 2013

Change the Weather History Date:

Sunday, May 19, 2013

  Actual Average Record
Temperature  
Mean Temperature 70 °F 61 °F  
Max Temperature 86 °F 72 °F 92 °F (1964)
Min Temperature 53 °F 49 °F 34 °F (1894)
Degree Days  
Heating Degree Days 0 6  
Month to date heating degree days 95 154  
Since 1 July heating degree days 6072 6056  
Cooling Degree Days 5 2  
Month to date cooling degree days 26 17  
Year to date cooling degree days 26 25  
Growing Degree Days 20 (Base 50)    
Moisture  
Dew Point 56 °F    
Average Humidity 63    
Maximum Humidity 86    
Minimum Humidity 40    
Precipitation  
Precipitation 0.00 in 0.12 in 0.61 in (2005)
Month to date precipitation 0.23 2.12  
Year to date precipitation 12.12 11.91  
Snow  
Snow 0.00 in 0.00 in - ()
Month to date snowfall 0.0 0.1  
Since 1 July snowfall 22.4 37.6  
Snow Depth 0.00 in    
Sea Level Pressure  
Sea Level Pressure 29.96 in    
Wind  
Wind Speed 4 mph (ESE)    
Max Wind Speed 13 mph    
Max Gust Speed 17 mph    
Visibility 10 miles    
Events      
T = Trace of Precipitation, MM = Missing Value Source: NWS Daily Summary

Daily Weather History Graph

Daily Weather History Graph

Search for Another Location

Airport or City:

Trip Planner

Search our weather history database for the weather conditions in past years. The results will help you decide how hot, cold, wet, or windy it might be!

Date:

Astronomy

May. 19, 2013 Rise Set
Actual Time 6:11 AM EDT 8:52 PM EDT
Civil Twilight 5:39 AM EDT 9:24 PM EDT
Nautical Twilight 4:59 AM EDT 10:04 PM EDT
Astronomical Twilight 4:14 AM EDT 10:50 PM EDT
Moon 2:50 PM EDT (5/19) 2:39 AM EDT (5/19)
Length of Visible Light 15h 44m
Length of Day
14h 40m
Waxing Gibbous, 65% of the Moon is Illuminated
May 19
Waxing Gibbous
May 25
Full
May 31
Last Quarter
Jun 8
New
Jun 16
First Quarter

Hourly Weather History & Observations

Time (EDT) Temp. Heat Index Dew Point Humidity Pressure Visibility Wind Dir Wind Speed Gust Speed Precip Events Conditions
12:52 AM 57.9 °F - 46.9 °F 67% 30.03 in 10.0 mi NE 4.6 mph - N/A   Clear
1:52 AM 57.0 °F - 48.0 °F 72% 30.01 in 10.0 mi NE 3.5 mph - N/A   Clear
2:52 AM 57.0 °F - 48.0 °F 72% 29.99 in 10.0 mi NE 3.5 mph - N/A   Clear
3:52 AM 55.0 °F - 48.9 °F 80% 29.99 in 10.0 mi Calm Calm - N/A   Clear
4:52 AM 55.9 °F - 50.0 °F 80% 30.00 in 10.0 mi North 4.6 mph - N/A   Clear
5:52 AM 55.0 °F - 50.0 °F 83% 30.01 in 10.0 mi Calm Calm - N/A   Clear
6:52 AM 55.0 °F - 51.1 °F 86% 30.01 in 10.0 mi Calm Calm - N/A   Clear
7:52 AM 59.0 °F - 53.1 °F 81% 30.01 in 10.0 mi ENE 4.6 mph - N/A   Clear
8:52 AM 64.9 °F - 55.0 °F 70% 30.01 in 10.0 mi Calm Calm - N/A   Clear
9:52 AM 71.1 °F - 57.9 °F 63% 30.01 in 10.0 mi South 4.6 mph - N/A   Clear
10:52 AM 75.0 °F - 60.1 °F 60% 29.99 in 10.0 mi SE 5.8 mph - N/A   Clear
11:52 AM 79.0 °F - 60.1 °F 52% 29.99 in 10.0 mi Calm Calm - N/A   Clear
12:52 PM 80.1 °F 80.9 °F 60.1 °F 50% 29.99 in 10.0 mi Calm Calm - N/A   Scattered Clouds
1:52 PM 81.0 °F 81.6 °F 60.1 °F 49% 29.96 in 10.0 mi Calm Calm - N/A   Mostly Cloudy
2:52 PM 81.0 °F 81.3 °F 59.0 °F 47% 29.94 in 10.0 mi Calm Calm - N/A   Mostly Cloudy
3:52 PM 84.0 °F 83.5 °F 57.9 °F 41% 29.92 in 10.0 mi SW 8.1 mph - N/A   Mostly Cloudy
4:52 PM 84.0 °F 83.5 °F 57.9 °F 41% 29.90 in 10.0 mi South 5.8 mph - N/A   Scattered Clouds
5:52 PM 84.0 °F 84.4 °F 61.0 °F 46% 29.90 in 10.0 mi ESE 6.9 mph - N/A   Clear
6:52 PM 82.0 °F 82.7 °F 61.0 °F 49% 29.90 in 10.0 mi East 10.4 mph - N/A   Clear
7:52 PM 79.0 °F - 61.0 °F 54% 29.91 in 10.0 mi East 8.1 mph - N/A   Clear
8:52 PM 73.9 °F - 61.0 °F 64% 29.90 in 10.0 mi East 8.1 mph - N/A   Clear
9:52 PM 73.0 °F - 60.1 °F 64% 29.91 in 10.0 mi ESE 4.6 mph - N/A   Clear
10:52 PM 70.0 °F - 60.1 °F 71% 29.91 in 10.0 mi SE 3.5 mph - N/A   Clear
11:52 PM 69.1 °F - 60.1 °F 73% 29.91 in 10.0 mi Calm Calm - N/A   Clear